#timestamp,LO_Frequency,Hit,StdDev 
1619449235.6,286047003.0,P
1619449255.5,286047005.3,P
1619449275.3,286047006.0,P
1619449295.1,286047003.0,N
1619449315.9,286047005.5,Y
1619449335.7,286046996.6,P
1619449355.6,286046996.6,N
1619449375.4,286046997.6,N
1619449395.2,286046994.9,N
1619449415.1,286046997.4,N
1619449416.0,286046997.4,N
1619449435.8,286046997.2,N
1619449485.7,286046997.2,E
1619449495.6,286046999.3,N
1619449515.4,286047000.0,P
1619449535.3,286047001.8,P
1619449555.1,286047003.3,Y
1619449575.8,286047003.7,P
1619449595.7,286047001.8,N
1619449615.5,286047001.8,N
1619449635.4,286047001.4,N
1619449655.2,286047001.7,N
1619449675.0,286046999.9,N
1619449675.9,286046999.9,N
1619449695.8,286047001.6,N
1619449715.6,286047000.1,N
1619449735.4,286047002.0,N
1619449755.3,286047002.2,N
1619449775.1,286047001.6,N
1619449795.9,286047004.4,Y
1619449815.7,286047002.5,P
1619449835.5,286047002.4,P
1619449855.4,286047000.2,N
1619449875.2,286047001.9,N
1619449895.0,286046999.9,N
1619449895.9,286046999.9,N
1619449915.8,286046999.9,N
1619449935.6,286047001.0,N
1619449955.5,286047000.6,N
1619449975.3,286047002.7,N
1619449995.1,286047001.6,N
1619450015.9,286047002.2,N
1619450035.7,286046999.7,N
1619450055.5,286047002.2,N
1619450075.4,286047001.6,N
1619450095.2,286047001.9,N
1619450115.1,286047001.6,N
1619450116.0,286047001.6,N
1619450135.8,286047002.7,N
1619450155.6,286047002.3,N
1619450175.5,286047002.1,N
1619450195.3,286046999.7,N
1619450215.1,286047002.5,N
1619450235.9,286047002.3,N
1619450255.7,286047001.4,N
1619450275.6,286047006.9,Y
1619450295.4,286047007.4,P
1619450315.2,286047007.0,N
1619450335.1,286047008.3,P
1619450336.0,286047008.3,Y
1619450355.8,286047001.7,P
1619450375.7,286047002.1,N
1619450395.5,286047001.4,N
1619450415.3,286047001.5,N
1619450435.2,286047004.2,N
1619450455.0,286047003.6,N
1619450455.9,286047003.6,N
1619450475.7,286047003.5,N
1619450495.6,286047004.0,N
1619450515.4,286047004.8,Y
1619450535.3,286047002.7,P
1619450555.1,286047002.0,P
1619450556.0,286047002.0,P
1619450575.8,286047002.6,Y
1619450595.7,286046999.4,P
1619450615.5,286046998.3,N
1619450635.4,286047000.8,N
1619450655.2,286047000.4,N
1619450675.0,286047000.1,N
1619450675.9,286047000.1,N
1619450695.8,286047000.7,N
1619450715.6,286047001.0,N
1619450735.5,286047000.7,N
1619450755.3,286047000.2,N
1619450775.1,286047002.1,N
1619450795.9,286047001.9,N
1619450815.7,286047004.4,Y
1619450835.5,286047003.5,P
1619450855.4,286047005.3,P
1619450875.2,286047005.6,N
1619450895.1,286047005.0,N
1619450896.0,286047005.0,N
1619450915.8,286047007.2,Y
1619450935.6,286047001.7,P
1619450955.5,286047003.2,N
1619450975.3,286047004.2,P
1619450995.1,286047001.4,N
1619451015.9,286047003.8,Y
1619451035.7,286047002.5,P
1619451055.6,286047002.3,P
1619451075.4,286047000.2,N
1619451095.2,286047002.2,N
1619451115.1,286047001.7,N
1619451116.0,286047001.7,N
1619451135.8,286047003.9,Y
1619451155.6,286047002.3,P
1619451175.5,286047004.2,P
1619451195.3,286047002.9,N
1619451215.2,286047004.4,Y
1619451235.9,286047001.1,P
1619451255.7,286046999.1,N
1619451275.6,286046998.9,N
1619451295.4,286046998.6,N
1619451315.2,286046999.7,N
1619451335.1,286047002.4,N
1619451336.0,286047002.4,N
1619451355.8,286047001.4,N
1619451375.7,286047003.2,N
1619451395.5,286047004.1,N
1619451415.3,286047001.3,N
1619451435.2,286047003.7,N
1619451455.0,286047004.4,N
1619451455.9,286047004.4,N
1619451475.8,286047003.5,N
1619451495.6,286047003.0,N
1619451515.4,286047005.4,N
1619451535.3,286047005.2,N
1619451555.1,286047006.4,Y
1619451575.8,286047003.3,P
1619451595.7,286047003.1,P
1619451615.5,286047003.0,P
1619451635.4,286047005.5,Y
1619451655.2,286047003.7,P
1619451675.0,286047004.3,P
1619451675.9,286047004.3,P
1619451695.8,286047005.6,Y
1619451715.6,286047000.4,P
1619451735.4,286047000.9,N
1619451755.3,286047000.4,N
1619451775.1,286047000.9,N
1619451795.9,286047001.0,N
1619451815.7,286047000.9,N
1619451835.5,286046999.8,N
1619451855.4,286047002.4,N
1619451875.2,286047002.5,N
1619451895.0,286047001.6,N
1619451895.9,286047001.6,N
1619451915.8,286047004.3,Y
1619451935.6,286047001.5,P
1619451955.5,286047003.7,P
1619451975